Regional Weather Roundup
Issued by NWS Upton, NY

Current Version | Previous Version | Text Only | Print | Product List | Glossary Off
Versions: 1 2 3 4 5 6 7 8 9 10 11 12 13 14 15 16 17 18 19 20 21 22 23 24 25 26 27 28 29 30 31 32 33 34 35 36 37 38 39 40 41 42 43 44 45 46 47 48 49 50

000
ASUS41 KOKX 311704
RWROKX

REGIONAL WEATHER ROUNDUP
NATIONAL WEATHER SERVICE NEW YORK NY
100 PM EDT FRI JUL 31 2015

NOTE: "FAIR" INDICATES FEW OR NO CLOUDS BELOW 12,000 FEET WITH NO
SIGNIFICANT WEATHER AND/OR OBSTRUCTIONS TO VISIBILITY.

NYZ071-072-176-178-NJZ106-104-311800-
NEW YORK CITY METRO AREA


CITY           SKY/WX    TMP DP  RH WIND       PRES   REMARKS
CENTRAL PARK   SUNNY     87  57  35 VRB7G17   29.89F
LAGUARDIA APRT MOSUNNY   86  55  34 VRB5G22   29.85F
KENNEDY INTL   MOSUNNY   90  53  28 W10G21    29.86F
NEWARK/LIBERTY MOSUNNY   90  54  29 W8        29.85F
BRNX BOT. GARD   N/A     86  57  37 W12       29.87F
TETERBORO      SUNNY     86  55  34 NW13G20   29.84F
$$

NYZ177-179-078>081-311800-
LONG ISLAND NEW YORK

CITY           SKY/WX    TMP DP  RH WIND       PRES   REMARKS
FARMINGDALE    SUNNY     88  56  33 NW9       29.85F
ISLIP          MOSUNNY   87  55  33 VRB5      29.83F
SHIRLEY        SUNNY     89  54  30 NW13      29.85F
WESTHAMPTON    SUNNY     90  52  27 W15       29.85F
MONTAUK POINT    N/A     86  61  42 W6        29.85F
$$

NYZ052-065-067-311800-
HUDSON VALLEY

CITY           SKY/WX    TMP DP  RH WIND       PRES   REMARKS
WHITE PLAINS   MOSUNNY   84  60  44 NW12      29.86F
NEWBURGH       SUNNY     86  57  37 NW12G17   29.88F
MONTGOMERY     SUNNY     85  54  34 W13G20    29.87S
POUGHKEEPSIE   SUNNY     87  51  28 NW8       29.83F
ALBANY         MOSUNNY   81  56  42 W14G22    29.84F
$$

NJZ001-105-106-008-010-013-015-019>022-104-311800-
NEW JERSEY

CITY           SKY/WX    TMP DP  RH WIND       PRES   REMARKS
NEWARK/LIBERTY MOSUNNY   90  54  29 W8        29.85F
TETERBORO      SUNNY     86  55  34 NW13G20   29.84F
CALDWELL       MOSUNNY   86  57  37 N7        29.87F
MORRISTOWN     PTSUNNY   88  59  37 NW16      29.87F
SOMERVILLE     MOSUNNY   87  55  33 VRB5      29.86F
SUSSEX         SUNNY     83  55  38 VRB6      29.88F
ANDOVER          N/A     83  58  42 VRB7      29.90F
TRENTON        PTSUNNY   86  57  37 N12       29.87F
MILLVILLE      SUNNY     87  58  37 VRB5      29.90F
ATLANTIC CITY  MOSUNNY   87  60  40 NW8       29.89F
WRIGHTSTOWN    SUNNY     86  60  40 N8        29.86F
TOMS RIVER       N/A     86  57  37 N10       29.88F
BELMAR         SUNNY     88  57  35 NW9       29.88F
$$

PAZ047>061-062-071-311800-
EASTERN PENNSYLVANIA

CITY           SKY/WX    TMP DP  RH WIND       PRES   REMARKS
PHILADELPHIA   MOSUNNY   88  54  31 N8        29.89F
ALLENTOWN      MOSUNNY   85  59  41 CALM      29.89F
SCRANTON       SUNNY     83  50  31 W3        29.92F
$$

CTZ002-004>006-009-010-012-RIZ004-006-007-MAZ004-011-015-311800-
SOUTHERN NEW ENGLAND
 IN CT

CITY           SKY/WX    TMP DP  RH WIND       PRES   REMARKS
BRADLEY INTL   MOSUNNY   87  55  33 W10G21    29.81F
HARTFORD       SUNNY     85  60  42 W8        29.81F
DANBURY        SUNNY     82  56  40 W14       29.87F
WTRBRY/OXFORD  MOSUNNY   81  61  50 NW5       29.89F
BRIDGEPORT     MOSUNNY   83  67  58 SW13      29.84F
MERIDEN        MOSUNNY   86  57  37 W8        29.83F
NEW HAVEN      MOSUNNY   81  67  62 SW9       29.83F
CHESTER        FAIR      82  61  47 W6        29.85F
GROTON         MOSUNNY   80  68  66 SW12      29.82F
WILLIMANTIC    MOSUNNY   85  56  37 W12G18    29.82F

 IN RI

CITY           SKY/WX    TMP DP  RH WIND       PRES   REMARKS
PROVIDENCE     MOSUNNY   86  57  37 W15G23    29.81F
BLOCK ISLAND     N/A     82  63  51 W12       29.85F
WESTERLY       SUNNY     82  66  58 SW9       29.83F

 IN MA

CITY           SKY/WX    TMP DP  RH WIND       PRES   REMARKS
BOSTON         MOSUNNY   87  56  34 W16G22    29.77F
WORCESTER      SUNNY     79  55  43 W16G24    29.84F
WESTFIELD      SUNNY     86  55  34 W14G20    29.82F
PROVINCETOWN   SUNNY     84  61  45 SW8       29.79F
NANTUCKET      SUNNY     84  67  56 W14       29.81F
$$

ANZ330-335-338-340-345-350-353-355-311800-
COASTAL MARINE OBSERVATIONS


STATION/POSITION TIME  SKY/WX   TEMP    WIND        PRES    VSBY  WAVE
                                AIR SEA DIR/SP/G                  HT/PER
                 (UTC)          (F)     (DEG/KT/KT) (MB)    (MI)  (FT/S)
NY HARB ENTRANCE 1550            77 77  270/  6/  8 1011.6          2/10
4S FIRE IS       NOT AVBL
20S FIRE ISLAND  1550            75 75  290/  8/  8 1011.5          3/ 6
GREAT SOUTH BAY  1600            80 81  230/ 10/ 12   N/A
23SW MTP         1650            74 75  250/  8/  8 1010.5          3/ 6
HUDSON CANYON    NOT AVBL
KINGS POINT      1600            83 70   20/  3/  5 1010.8
EXECUTION ROCKS  1600            80      CALM  /  4   N/A
CENTRAL LI SOUND NOT AVBL
EASTERN LI SOUND 1600            72 69  250/  8/ 10   N/A
ROBBINS REEF     1600            83     290/ 12/ 15 1010.3
$$


>>>>>>>>>>>>>>>>>>>>>>>>>>>> KEY <<<<<<<<<<<<<<<<<<<<<<<<<<<
>                                                          <
>     SKY/WX - SKY CONDITION/PRESENT WEATHER               <
>     TMP    - TEMPERATURE IN FAHRENHEIT                   <
>     DP     - DEWPOINT IN FAHRENHEIT                      <
>     RH     - RELATIVE HUMIDITY IN PERCENT                <
>     WIND   - DIRECTION AND SPEED IN MPH                  <
>     PRES   - MEAN SEA LEVEL PRESSURE IN INCHES OF HG     <
>     WCI    - WIND CHILL INDEX                            <
>     VSB    - VISIBILITY IN MILES                         <
>     HX     - HEAT INDEX                                  <
>     TC     - TEMPERATURE IN CELSIUS                      <
>     VRB    - VARIABLE WIND DIRECTION                     <
>                                                          <
>>>>>>>>>>>>>>>>>>>>>>>>>>>> KEY <<<<<<<<<<<<<<<<<<<<<<<<<<<




USA.gov is the U.S. government's official web portal to all federal, state and local government web resources and services.